Regional Weather Roundup
Issued by NWS Sioux Falls, SD

Home | Current Version | Previous Version | Graphics & Text | Print | Product List | Glossary Off
Versions: 1 2 3 4 5 6 7 8 9 10 11 12 13 14 15 16 17 18 19 20 21 22 23 24 25 26 27 28 29 30 31 32 33 34 35 36 37 38 39 40 41 42 43 44 45 46 47 48 49 50

496
ASUS43 KFSD 050202
RWRFSD

WEATHER ROUNDUP FOR SE SOUTH DAKOTA/SW MINNESOTA/NW IOWA
NATIONAL WEATHER SERVICE SIOUX FALLS SD
800 PM CST SUN DEC 04 2016

NOTE: "FAIR" INDICATES FEW OR NO CLOUDS BELOW 12,000 FEET WITH NO
SIGNIFICANT WEATHER AND OR OBSTRUCTIONS TO VISIBILITY.


SDZ038>040-050-052>070-050300-
SOUTHEAST SOUTH DAKOTA

CITY           SKY/WX    TMP DP  RH WIND       PRES   REMARKS
CHAMBERLAIN    PTCLDY    32  28  83 SE7       29.74F WCI  26
HURON          CLEAR     32  27  81 S6        29.75F WCI  26
MADISON        FAIR      32  32 100 W7        29.76F WCI  26
MITCHELL       CLEAR     35  28  75 S8        29.77F WCI  29
SIOUX FALLS    PTCLDY    33  29  85 W3        29.79F
WINNER         FAIR      36  26  67 S7        29.72F
YANKTON        CLEAR     36  27  69 CALM      29.80F
$$

MNZ071-072-080-081-089-090-097-098-050300-
SOUTHWEST MINNESOTA

CITY           SKY/WX    TMP DP  RH WIND       PRES   REMARKS
FAIRMONT       CLEAR     35  31  85 SW9       29.81R WCI  28
JACKSON        PTCLDY    32  30  93 SW8       29.80S WCI  25
LUVERNE        CLEAR     30  28  93 SW5       29.80S WCI  25
MARSHALL       CLEAR     35  31  85 SW13      29.77S WCI  26
MONTEVIDEO     CLEAR     30  27  86 SW5       29.78R WCI  25
PIPESTONE      CLEAR     34  30  86 W5        29.77F WCI  30
REDWOOD FALLS  CLEAR     32  29  88 SW5       29.77S WCI  27
TRACY          CLEAR     35  32  89 SW12      29.77S WCI  27
WINDOM         CLEAR     34  30  86 CALM      29.79R
WORTHINGTON    CLEAR     35  31  85 SW10      29.79S WCI  27
$$

IAZ001>003-012>014-020>022-031-032-NEZ013-014-SDZ071-050300-
NORTHWEST IOWA

CITY           SKY/WX    TMP DP  RH WIND       PRES   REMARKS
CHEROKEE       CLEAR     32  32 100 S5        29.84S WCI  27
DENISON        CLEAR     34  32  93 S6        29.86S WCI  29
ESTHERVILLE    CLEAR     32  31  96 SW6       29.81R WCI  26
LE MARS        CLEAR     30  28  93 S7        29.84S WCI  23
ORANGE CITY    CLEAR     34  30  86 CALM      29.82S
SHELDON        CLEAR     34  32  93 SW5       29.81S WCI  30
SIOUX CITY     CLEAR     34  31  88 SE7       29.85S WCI  28
SPENCER        CLEAR     32  29  88 SW10      29.82R WCI  24
STORM LAKE     CLEAR     34  32  93 SW7       29.84S WCI  28
$$

ABBREVIATIONS USED IN REMARKS
   TC - TEMPERATURE IN CELSIUS
  WCI - WIND CHILL INDEX
   HX - HEAT INDEX
  VSB - VISIBILITY





USA.gov is the U.S. government's official web portal to all federal, state and local government web resources and services.